Stations météo

réclame
Mon MeteoGroup
Frankfurt/Main, Allemagne (10637): Température de l'air & dewpoint: 18.01.2018 10:00:00 - 24.01.2018 10:00:00 (CET)Frankfurt/Main, Allemagne (10637): Température de l'air 5cm & Température de l'air -5cm: 18.01.2018 10:00:00 - 24.01.2018 10:00:00 (CET)Frankfurt/Main, Allemagne (10637): Température de l'air -20cm & Température de l'air -100cm: 18.01.2018 10:00:00 - 24.01.2018 10:00:00 (CET)Frankfurt/Main, Allemagne (10637): Vitesse du vent & gusts: 18.01.2018 10:00:00 - 24.01.2018 10:00:00 (CET)Frankfurt/Main, Allemagne (10637): Direction du vent: 18.01.2018 10:00:00 - 24.01.2018 10:00:00 (CET)Frankfurt/Main, Allemagne (10637): reduced air pressure: 18.01.2018 10:00:00 - 24.01.2018 10:00:00 (CET)Frankfurt/Main, Allemagne (10637): visibility: 18.01.2018 10:00:00 - 24.01.2018 10:00:00 (CET)Frankfurt/Main, Allemagne (10637): Ensoleillement: 18.01.2018 10:00:00 - 24.01.2018 10:00:00 (CET)Frankfurt/Main, Allemagne (10637): Quantités de précipitations: 18.01.2018 10:00:00 - 24.01.2018 10:00:00 (CET)
Date & Time tt [°C] td [°C] tt 5cm [°C] tt -5cm [°C] tt -20cm [°C] tt -100cm [°C] ff [km/h] ff [knt] fx [km/h] fx [knt] dd ppp [hPa] vv [km] sd [min] rr [mm]
24.01.2018 10:00:00 8,8 6,9 8,4 6,5 5,6 5,9 19 10 38 21 S 1023,0 40 0 0,0
24.01.2018 09:00:00 8,4 6,5 7,9 6,3 5,5 5,9 19 11 43 23 SSW 1023,0 40 0 0,0
24.01.2018 08:00:00 8,3 6,3 7,7 6,1 5,5 5,8 20 11 51 28 SSW 1023,1 40 0 0,0
24.01.2018 07:00:00 8,1 5,7 7,5 6,0 5,4 5,8 19 10 41 22 S 1023,2 40 0 0,0
24.01.2018 06:00:00 8,2 5,1 7,5 5,9 5,4 5,8 21 11 44 24 SSW 1023,2 35 0 0,0
24.01.2018 05:00:00 7,9 4,7 7,3 5,8 5,3 5,8 22 12 35 19 SSW 1023,4 30 0 0,0
24.01.2018 04:00:00 8,0 4,4 7,2 5,8 5,3 5,8 23 12 32 17 SSW 1023,5 35 0 0,0
24.01.2018 03:00:00 7,9 4,4 7,2 5,8 5,3 5,8 22 12 30 16 SSW 1023,7 35 0 0,0
24.01.2018 02:00:00 8,1 4,4 7,4 5,7 5,2 5,8 12 7 28 15 S 1023,8 35 0 0,0
24.01.2018 01:00:00 8,2 4,4 7,5 5,7 5,2 5,8 14 8 28 15 S 1023,9 35 0 0,0
24.01.2018 00:00:00 8,3 4,3 7,5 5,6 5,1 5,8 14 7 28 15 S 1024,2 35 0 0,0
23.01.2018 23:00:00 7,8 4,1 7,0 5,5 5,1 5,8 22 12 38 21 SSW 1024,3 30 0 0,0
23.01.2018 22:00:00 7,8 4,0 6,9 5,5 5,1 5,8 19 10 34 18 SSW 1024,3 35 0 0,0
23.01.2018 21:00:00 7,3 4,3 6,2 5,4 5,1 5,8 18 10 39 21 SSW 1024,4 30 0 0,0
23.01.2018 20:00:00 7,7 4,0 6,5 5,4 5,1 5,8 21 12 44 24 SSW 1024,5 20 0 0,0
23.01.2018 19:00:00 7,9 4,2 6,9 5,3 5,1 5,8 22 12 38 21 SSW 1024,6 35 0 0,0
23.01.2018 18:00:00 7,6 4,2 6,1 5,4 5,1 5,8 21 11 36 20 SSW 1024,7 35 0 0,0
23.01.2018 17:00:00 8,0 4,2 7,2 6,1 5,0 5,8 19 11 36 20 SSW 1024,7 35 0 0,0
23.01.2018 16:00:00 8,3 4,0 7,6 6,4 4,9 5,8 21 11 51 28 SSW 1024,8 30 0 0,0
23.01.2018 15:00:00 8,5 4,2 8,3 6,6 4,6 5,8 19 10 33 18 SSW 1024,9 30 0 0,0
23.01.2018 14:00:00 8,6 3,7 8,8 6,3 4,4 5,8 18 10 23 13 SW 1025,3 25 4 0,0
23.01.2018 13:00:00 7,7 4,0 7,5 5,6 4,2 5,8 10 6 21 11 SSW 1026,0 30 0 0,0
23.01.2018 12:00:00 7,0 4,0 7,0 5,2 4,0 5,8 10 5 22 12 S 1026,2 30 0 0,0
23.01.2018 11:00:00 6,3 3,5 5,9 4,3 3,9 5,8 14 8 26 14 SSW 1026,1 30 0 0,0
23.01.2018 10:00:00 5,6 3,3 5,0 3,7 3,8 5,8 9 5 20 11 S 1025,5 30 0 0,0
23.01.2018 09:00:00 5,1 3,2 4,2 3,4 3,8 5,8 5 3 18 10 S 1025,0 30 0 0,0
23.01.2018 08:00:00 5,2 3,1 3,0 3,4 3,8 5,8 14 8 22 12 WSW 1024,2 30 0 0,0
23.01.2018 07:00:00 5,6 3,2 3,9 3,4 3,8 5,8 13 7 27 14 WSW 1023,7 30 0 0,0
23.01.2018 06:00:00 5,8 3,2 3,8 3,4 3,8 5,8 19 10 30 16 SW 1023,1 30 0 0,0
23.01.2018 05:00:00 5,8 3,2 4,4 3,5 3,8 5,8 11 6 16 9 SW 1022,5 30 0 0,0
23.01.2018 04:00:00 5,9 3,0 4,5 3,6 3,8 5,8 10 5 18 10 SW 1021,9 30 0 0,0
23.01.2018 03:00:00 6,2 2,8 4,9 3,6 3,8 5,8 12 7 19 10 WSW 1021,6 30 0 0,0
23.01.2018 02:00:00 6,0 2,7 4,4 3,5 3,8 5,8 14 8 26 14 WSW 1020,6 30 0 0,0
23.01.2018 01:00:00 6,4 2,4 5,0 3,4 3,8 5,8 19 11 28 15 W 1019,6 30 0 0,0
23.01.2018 00:00:00 5,7 2,7 3,8 3,3 3,8 5,8 14 8 20 11 WSW 1018,7 30 0 0,0
22.01.2018 23:00:00 6,0 3,3 4,4 3,2 3,8 5,8 4 2 18 10 W 1017,8 30 0 0,0
22.01.2018 22:00:00 5,7 3,8 3,8 3,5 3,8 5,8 17 9 21 11 WSW 1016,7 25 0 0,0
22.01.2018 21:00:00 4,3 3,6 3,3 3,6 3,8 5,8 13 7 18 10 WSW 1015,8 20 0 0,0
22.01.2018 20:00:00 4,6 3,6 3,8 3,6 3,8 5,8 11 6 20 11 SW 1014,7 20 0 0,0
22.01.2018 19:00:00 4,3 3,3 3,6 3,6 3,8 5,8 9 5 21 11 WSW 1013,8 18 0 0,0
22.01.2018 18:00:00 4,0 3,3 3,2 3,8 3,8 5,8 9 5 15 8 SSW 1012,2 15 0 0,0
22.01.2018 17:00:00 3,9 3,2 2,7 4,0 3,7 5,8 9 5 15 8 SW 1010,9 15 0 0,0
22.01.2018 16:00:00 4,3 3,2 4,1 4,5 3,5 5,8 6 4 11 6 SW 1009,9 15 0 0,0
22.01.2018 15:00:00 4,1 3,0 4,1 4,6 3,3 5,8 8 4 18 10 WSW 1009,2 20 0 0,0
22.01.2018 14:00:00 3,8 2,5 4,1 4,1 3,1 5,9 8 5 16 8 SW 1009,1 15 0 0,0
22.01.2018 13:00:00 3,2 2,3 3,7 3,5 3,0 5,9 9 5 18 10 SW 1009,4 8 0 0,0
22.01.2018 12:00:00 2,5 1,9 2,7 2,9 2,9 5,9 8 4 21 11 SW 1009,7 7 0 0,0
22.01.2018 11:00:00 1,8 1,0 2,0 2,4 2,8 5,9 11 6 18 10 SW 1009,8 6 0 0,0
22.01.2018 10:00:00 1,4 0,6 1,5 2,2 2,8 5,9 9 5 16 9 SW 1009,7 6 0 0,2
22.01.2018 09:00:00 1,2 0,8 1,1 1,9 2,7 5,9 10 5 16 9 SW 1010,1 2,0 0 0,3
22.01.2018 08:00:00 1,0 0,4 0,8 1,8 2,7 5,9 8 4 18 10 S 1009,8 3,0 0 0,3
22.01.2018 07:00:00 1,0 0,5 0,9 1,7 2,7 5,9 4 2 22 12 S 1010,4 3,8 0 0,1
22.01.2018 06:00:00 0,8 0,3 0,6 1,5 2,7 5,9 5 3 8 4 NE 1010,9 4,0 0 0,1
22.01.2018 05:00:00 0,7 0,1 0,4 1,4 2,7 5,9 6 3 9 5 NE 1011,3 2,5 0 0,2
22.01.2018 04:00:00 0,4 -0,2 0,0 1,2 2,8 5,9 5 3 9 5 ENE 1011,5 3,0 0 0,3
22.01.2018 03:00:00 0,4 -0,3 -0,1 1,2 2,9 5,9 4 2 8 4 E 1012,4 4,5 0 0,4
22.01.2018 02:00:00 0,4 -0,5 -0,1 1,4 3,0 5,9 5 3 15 8 SSE 1013,2 5 0 0,5
22.01.2018 01:00:00 1,0 -1,0 0,6 1,8 3,0 5,9 4 2 9 5 E 1014,3 20 0 0,0
22.01.2018 00:00:00 0,8 -1,1 0,3 1,6 3,1 5,9 5 3 9 5 ESE 1015,4 20 0 0,0
21.01.2018 23:00:00 1,1 -1,4 0,1 1,5 3,2 5,9 6 4 21 11 SE 1016,1 30 0 0,0
21.01.2018 22:00:00 1,1 -1,4 -0,3 1,5 3,3 5,9 8 4 18 10 SE 1017,1 40 0 0,0
21.01.2018 21:00:00 1,0 -1,8 -1,2 1,7 3,5 5,9 7 4 22 12 SSE 1018,0 50 0 0,0
21.01.2018 20:00:00 0,6 -1,4 -1,6 2,0 3,6 6,0 7 4 21 11 SSW 1018,5 50 0 0,0
21.01.2018 19:00:00 1,8 -0,5 -1,0 2,7 3,7 6,0 6 3 22 12 S 1018,5 50 0 0,0
21.01.2018 18:00:00 2,7 0,3 1,4 3,3 3,7 6,0 6 3 15 8 S 1018,8 50 0 0,0
21.01.2018 17:00:00 3,8 0,0 2,4 3,7 3,6 6,0 9 5 16 9 SSW 1018,7 50 0 0,0
21.01.2018 16:00:00 4,1 -0,3 3,6 4,1 3,5 6,0 11 6 23 13 W 1018,4 50 1 0,0
21.01.2018 15:00:00 4,3 -0,4 3,6 4,2 3,3 6,0 14 8 24 13 W 1017,9 50 16 0,0
21.01.2018 14:00:00 4,5 -0,8 4,6 4,1 3,1 6,0 19 10 25 13 W 1017,4 50 8 0,0
21.01.2018 13:00:00 3,9 -1,0 3,5 3,2 3,0 6,0 16 9 25 13 WSW 1017,4 50 0 0,0
21.01.2018 12:00:00 3,9 -0,6 3,8 3,1 2,8 6,0 9 5 21 11 WSW 1016,7 50 4 0,0
21.01.2018 11:00:00 3,2 -0,2 3,7 2,2 2,8 6,0 10 5 21 11 WSW 1016,0 50 4 0,0
21.01.2018 10:00:00 1,6 -0,5 0,9 1,6 2,8 6,0 14 8 23 13 W 1015,2 50 0 0,0
21.01.2018 09:00:00 1,1 -0,6 0,2 1,4 2,8 6,0 8 5 28 15 SW 1013,9 50 0 0,0
21.01.2018 08:00:00 2,8 -1,3 1,8 1,8 2,9 6,1 12 7 35 19 WNW 1012,1 50 0 0,0
21.01.2018 07:00:00 2,4 -0,3 1,1 1,7 2,9 6,1 9 5 28 15 W 1010,6 40 0 0,0
21.01.2018 06:00:00 2,9 0,4 2,0 2,2 2,9 6,1 19 10 36 20 WNW 1009,4 25 0 0,0
21.01.2018 05:00:00 2,4 0,8 2,0 2,1 2,9 6,1 16 9 27 15 WNW 1008,4 35 0 0,0
21.01.2018 04:00:00 2,6 0,3 2,1 2,0 2,8 6,1 16 9 38 20 W 1006,8 40 0 0,0
21.01.2018 03:00:00 2,3 0,3 1,6 1,9 2,9 6,1 22 12 33 18 NW 1005,1 40 0 0,0
21.01.2018 02:00:00 1,3 0,4 0,8 1,8 2,9 6,1 11 6 18 10 WSW 1003,8 17 0 0,0
21.01.2018 01:00:00 0,7 0,1 0,5 1,8 2,9 6,1 10 5 13 7 WSW 1002,7 8 0 0,0
21.01.2018 00:00:00 0,6 0,0 0,4 1,8 2,9 6,1 6 4 8 4 SSW 1001,7 8 0 0,1
20.01.2018 23:00:00 0,5 0,0 0,3 1,8 2,9 6,1 1 0 5 3 SW 1001,1 8 0 0,0
20.01.2018 22:00:00 0,4 -0,2 0,3 1,7 2,9 6,2 4 2 9 5 NNE 1000,7 10 0 0,0
20.01.2018 21:00:00 0,7 -0,1 0,1 1,5 2,9 6,2 7 4 11 6 NNE 1000,5 8 0 0,0
20.01.2018 20:00:00 0,8 -0,2 0,0 1,1 3,0 6,2 9 5 11 6 NNE 1000,2 8 0 0,4
20.01.2018 19:00:00 0,6 -0,3 -0,1 1,2 3,2 6,2 5 3 8 4 NNE 1000,2 5 0 1,2
20.01.2018 18:00:00 0,4 -0,2 -0,1 1,7 3,3 6,2 3 1 23 13 N 1000,7 6 0 1,3
20.01.2018 17:00:00 1,3 0,2 0,4 2,6 3,3 6,2 9 5 21 11 SE 1001,5 9 0 2,0
20.01.2018 16:00:00 2,5 1,4 2,1 3,1 3,2 6,2 8 4 29 16 SSE 1002,3 15 0 1,7
20.01.2018 15:00:00 2,7 1,4 2,4 3,4 3,1 6,2 14 8 38 21 S 1003,3 10 0 1,2
20.01.2018 14:00:00 3,6 2,4 3,3 3,3 2,9 6,2 18 10 34 18 S 1004,9 10 0 0,6
20.01.2018 13:00:00 3,7 2,0 3,3 3,0 2,7 6,2 17 9 35 19 S 1006,5 12 0 0,2
20.01.2018 12:00:00 3,7 1,3 3,6 2,3 2,6 6,3 18 10 42 23 S 1008,1 30 0 0,0
20.01.2018 11:00:00 3,2 1,0 3,0 1,6 2,5 6,3 19 10 48 26 S 1009,3 30 0 0,0
20.01.2018 10:00:00 2,8 0,3 2,3 1,0 2,5 6,3 23 12 49 27 SSW 1010,0 35 11 0,0
20.01.2018 09:00:00 2,0 -0,1 1,3 0,8 2,6 6,3 18 10 41 22 SSW 1010,4 35 9 0,0
20.01.2018 08:00:00 1,8 0,0 0,7 0,8 2,6 6,3 22 12 43 23 SSW 1010,7 40 0 0,0
20.01.2018 07:00:00 1,9 -0,1 1,0 0,8 2,7 6,3 24 13 42 23 SSW 1011,0 40 0 0,0
20.01.2018 06:00:00 2,1 0,0 1,1 0,9 2,7 6,3 21 11 44 24 SSW 1011,2 45 0 0,0
20.01.2018 05:00:00 2,2 0,0 0,4 0,9 2,8 6,3 15 8 20 11 S 1011,6 45 0 0,0
20.01.2018 04:00:00 0,8 -1,0 -0,7 0,9 2,9 6,3 9 5 16 9 SSW 1012,0 45 0 0,0
20.01.2018 03:00:00 1,4 -0,6 -0,3 0,9 3,0 6,3 11 6 19 10 S 1012,1 40 0 0,0
20.01.2018 02:00:00 -1,1 -2,0 -3,2 0,9 3,1 6,3 11 6 16 9 SSW 1012,6 30 0 0,0
20.01.2018 01:00:00 -0,8 -1,5 -2,5 1,0 3,2 6,3 11 6 24 13 WSW 1012,9 35 0 0,0
20.01.2018 00:00:00 0,3 -1,0 -1,6 1,0 3,3 6,3 16 9 30 16 SSW 1012,8 40 0 0,0
19.01.2018 23:00:00 0,1 -1,0 -1,9 1,1 3,5 6,3 18 10 29 16 SW 1012,6 40 0 0,0
19.01.2018 22:00:00 0,3 -1,2 -2,6 1,2 3,6 6,3 16 9 25 13 SW 1012,4 45 0 0,0
19.01.2018 21:00:00 0,1 -1,3 -3,3 1,4 3,9 6,3 14 8 20 11 SW 1012,0 50 0 0,0
19.01.2018 20:00:00 1,3 -0,8 -2,5 1,8 4,1 6,3 14 7 24 13 SSW 1011,7 50 0 0,0
19.01.2018 19:00:00 2,4 -0,6 -0,4 2,5 4,2 6,4 16 9 26 14 SW 1011,4 50 0 0,0
19.01.2018 18:00:00 3,6 -0,5 2,1 3,4 4,3 6,4 15 8 36 19 SSW 1011,2 50 0 0,0
19.01.2018 17:00:00 4,4 -1,7 2,5 3,7 4,3 6,4 14 7 31 17 SSW 1011,0 50 14 0,0
19.01.2018 16:00:00 6,0 -2,8 5,0 4,7 4,2 6,4 24 13 39 21 WSW 1010,9 50 59 0,0
19.01.2018 15:00:00 6,3 -2,2 6,8 5,0 3,9 6,4 26 14 38 20 W 1011,0 50 54 0,0
19.01.2018 14:00:00 5,9 -1,7 6,6 4,0 3,8 6,4 33 18 46 25 W 1011,5 60 1 0,0
19.01.2018 13:00:00 5,5 -1,8 4,8 3,6 3,7 6,4 28 15 42 23 WSW 1011,9 60 0 0,0
19.01.2018 12:00:00 5,2 -1,4 4,5 3,3 3,7 6,4 24 13 34 18 SW 1011,9 60 0 0,0
19.01.2018 11:00:00 4,9 -0,6 4,3 3,2 3,6 6,4 21 12 30 16 SW 1011,1 45 0 0,0
19.01.2018 10:00:00 3,8 0,2 3,1 2,5 3,6 6,4 16 9 29 16 WSW 1010,3 45 0 0,0
19.01.2018 09:00:00 2,9 0,5 2,3 2,1 3,7 6,4 15 8 35 19 SSW 1009,5 50 0 0,0
19.01.2018 08:00:00 3,4 0,0 1,8 2,2 3,7 6,4 26 14 38 20 SW 1008,4 10 0 0,0
19.01.2018 07:00:00 2,5 -0,5 0,4 2,0 3,9 6,4 16 9 31 17 SW 1007,5 60 0 0,0
19.01.2018 06:00:00 3,8 -0,2 1,1 2,5 3,9 6,4 19 11 31 17 WSW 1006,6 60 0 0,0
19.01.2018 05:00:00 3,6 0,8 2,0 2,5 4,0 6,4 9 5 22 12 WSW 1006,1 60 0 0,0
19.01.2018 04:00:00 4,0 1,0 2,3 2,9 4,1 6,4 14 8 29 16 W 1005,2 60 0 0,0
19.01.2018 03:00:00 3,7 2,1 2,8 3,1 4,1 6,4 16 8 21 11 SW 1004,7 45 0 0,0
19.01.2018 02:00:00 3,6 2,3 1,7 3,1 4,1 6,4 6 3 16 9 S 1003,8 40 0 0,3
19.01.2018 01:00:00 4,1 2,9 3,3 3,3 4,1 6,4 11 6 21 11 SSW 1004,2 18 0 0,7
19.01.2018 00:00:00 4,4 1,6 3,2 3,0 4,1 6,4 13 7 19 10 SSW 1004,0 18 0 0,0
18.01.2018 23:00:00 4,3 0,5 1,9 2,8 4,2 6,4 12 6 21 11 SW 1004,1 40 0 0,0
18.01.2018 22:00:00 4,8 0,1 2,3 2,6 4,4 6,4 14 7 26 14 SW 1004,2 60 0 0,0
18.01.2018 21:00:00 4,0 -1,3 -0,2 2,5 4,6 6,4 12 6 25 13 SSW 1004,3 60 0 0,0
18.01.2018 20:00:00 5,9 -1,3 3,4 3,0 4,8 6,4 19 11 25 14 WSW 1003,8 60 0 0,0
18.01.2018 19:00:00 6,4 -1,3 3,8 3,6 5,0 6,4 16 9 35 19 WSW 1003,1 60 0 0,0
18.01.2018 18:00:00 7,1 -1,6 5,2 4,2 5,1 6,4 24 13 44 24 W 1002,5 60 0 0,0
18.01.2018 17:00:00 8,2 -1,5 6,4 5,1 5,1 6,4 31 17 57 31 W 1001,7 65 31 0,0
18.01.2018 16:00:00 9,1 -2,1 8,0 6,2 5,0 6,4 40 22 74 40 WNW 1001,1 55 26 0,0
18.01.2018 15:00:00 10,6 -1,5 9,7 6,5 4,8 6,5 44 24 85 46 W 999,5 45 29 0,0
18.01.2018 14:00:00 11,7 0,3 11,9 7,0 4,4 6,5 57 31 86 47 W 998,2 40 43 0,0
18.01.2018 13:00:00 11,3 3,3 11,1 6,4 4,1 6,5 55 30 83 45 W 996,9 25 20 0,0
18.01.2018 12:00:00 9,6 5,4 8,1 5,3 3,8 6,5 45 25 61 33 SW 996,3 25 3 0,0
18.01.2018 11:00:00 7,7 4,0 6,7 3,9 3,7 6,5 33 18 71 38 SSW 997,4 60 0 0,2
18.01.2018 10:00:00 5,6 2,4 4,9 3,4 3,6 6,5 40 21 67 36 SW 998,9 15 0 0,0

tt = Température de l'air
td = dewpoint
tt 5cm = Température de l'air 5cm
tt -5cm = Température de l'air -5cm
tt -20cm = Température de l'air -20cm
tt -100cm = Température de l'air -100cm
ff = Vitesse du vent
fx = gusts
dd = Direction du vent
ppp = reduced air pressure
vv = visibility
sd = Ensoleillement
rr = Quantités de précipitations

stations d'obs. à proximité